Wetbulb
47.25 47.58 45.42 47.36 50.20 50.33 48.45 46.30 45.25 47.37 51.36 50.19 50.11 51.70 53.13 56.28 56.32 52.98 53.23 53.27 53.07 54.56 56.92 59.53 58.42 57.92 57.07 54.97 54.03 52.75 50.79 50.99 50.18 49.53 49.02 49.72 49.29 50.06 50.25 50.43 51.39 51.34 51.99 52.67
46.27 45.20 50.66 53.15 52.61 51.19 49.08 46.30 46.12 49.33 51.20 49.91 50.21 49.80 51.90 52.35 52.75 55.18 53.83 53.31 53.31 55.26 56.53 57.62 57.99 58.00 56.82 55.38 54.57 52.45 51.15 50.56 49.99 49.62 49.70 49.80 49.64 49.68 49.27 49.53 51.45 51.93 52.20 52.45
45.32 48.10 54.24 52.55 49.23 48.48 45.80 45.70 45.84 46.76 48.97 49.59 47.68 46.67 48.68 52.10 52.38 53.71 53.12 53.97 53.99 55.98 55.15 56.22 57.00 57.79 57.51 55.28 53.51 52.30 50.98 50.67 50.36 50.03 50.05 50.21 50.18 49.60 49.30 50.22 50.63 51.33 51.76 52.41
47.31 51.00 51.89 49.14 48.80 48.59 42.58 49.52 49.72 47.42 43.96 39.69 45.39 35.15 45.23 48.78 49.10 50.37 52.86 52.39 52.36 54.51 55.55 55.85 56.94 57.63 56.33 55.50 53.86 52.09 51.11 50.53 50.78 50.42 49.64 48.76 48.11 47.59 48.64 48.68 49.41 49.88 51.14 51.64
46.35 47.85 48.16 47.24 48.64 50.46 46.18 51.45 48.83 47.09 42.86 40.23 40.65 37.21 40.47 46.62 45.31 47.71 50.09 51.30 51.12 52.54 53.79 54.58 55.54 55.97 55.10 55.78 52.76 52.20 52.17 50.22 50.57 49.92 49.35 49.09 48.48 48.75 49.34 49.20 48.84 49.69 50.38 51.24
48.65 53.37 51.84 49.99 51.54 51.36 52.19 47.10 43.14 42.18 38.49 33.45 38.80 37.52 36.94 42.25 46.04 48.63 50.74 51.47 51.42 52.10 53.48 55.70 56.20 56.57 55.91 52.75 51.97 52.39 51.11 49.82 49.22 49.10 49.14 48.91 48.68 49.01 48.95 49.13 48.54 49.15 49.69 50.59
47.93 48.30 51.47 51.82 47.54 47.29 46.39 38.19 33.25 31.65 32.73 32.39 40.83 35.65 37.72 44.70 48.43 49.32 49.68 50.65 52.50 53.21 53.50 54.58 53.66 52.93 51.21 51.28 51.67 51.82 49.77 49.29 48.77 49.10 48.90 50.11 50.09 49.71 49.47 49.32 48.91 48.71 49.08 49.84
41.86 40.77 47.90 51.11 46.58 44.05 42.11 38.49 33.44 28.93 29.87 32.99 40.00 34.56 38.38 45.97 49.04 50.24 50.85 50.80 52.10 52.49 52.32 53.03 53.17 52.01 50.26 51.08 51.19 51.14 49.72 48.76 48.37 48.34 48.47 51.38 50.38 50.35 50.19 49.98 49.60 49.23 49.24 49.85
41.71 42.53 50.59 50.38 49.41 46.55 42.76 39.65 41.07 36.49 35.32 32.52 36.73 41.05 44.08 46.55 48.15 49.90 49.42 49.99 49.98 50.42 51.09 51.47 51.99 50.91 48.47 51.24 50.34 50.61 49.42 48.20 48.19 48.19 48.59 51.11 50.79 50.94 50.64 50.70 50.56 50.09 50.56 50.71
45.00 40.22 47.96 50.16 49.03 47.47 45.02 45.63 36.51 35.01 29.81 28.45 34.58 35.36 35.66 41.13 42.79 47.65 48.35 48.63 49.17 49.80 50.41 51.08 50.13 50.23 50.23 50.75 50.16 49.60 49.21 47.77 48.17 48.72 48.73 51.76 51.10 51.35 51.49 51.10 50.59 50.93 50.86 50.74
44.35 42.26 42.73 45.92 42.97 40.43 41.23 39.33 39.25 37.47 35.08 30.03 29.77 33.82 41.87 42.35 42.70 44.68 46.45 47.83 48.17 49.46 50.05 50.97 51.40 49.96 49.95 49.28 48.41 48.04 49.18 47.85 48.17 48.51 48.98 50.97 51.97 50.75 51.25 51.14 51.84 51.92 52.12 50.89
45.55 40.66 37.39 39.96 46.48 47.10 42.12 39.83 38.62 33.92 33.13 33.89 32.51 32.20 42.55 41.21 41.70 42.23 43.74 46.62 46.75 47.87 49.86 50.32 50.16 50.00 49.23 47.97 47.90 47.51 49.25 48.76 49.27 48.69 48.99 50.71 52.20 51.33 50.87 51.00 52.29 52.65 51.76 52.26
46.58 39.39 35.76 39.17 40.25 43.17 39.23 40.38 39.44 37.89 36.23 32.61 30.22 31.84 44.64 45.58 46.14 46.78 46.32 48.03 49.54 50.17 49.70 48.71 47.59 47.18 48.11 48.20 47.71 47.84 49.15 49.34 49.38 48.99 49.11 51.25 51.89 52.81 51.52 50.28 51.41 52.76 52.73 52.63
49.21 40.18 39.33 36.07 35.88 39.46 37.51 39.19 38.90 35.43 31.00 31.97 32.59 36.70 41.47 44.24 45.93 47.36 47.70 49.26 50.35 50.18 50.79 51.42 51.35 49.98 49.00 49.12 48.01 48.09 48.69 49.95 49.71 49.68 50.06 50.45 51.64 51.99 52.65 52.01 52.13 52.47 53.83 53.64
43.91 38.05 38.47 38.99 42.04 42.30 41.26 41.10 40.44 36.72 35.47 33.02 37.31 38.75 41.50 44.92 46.35 47.89 49.00 49.62 49.61 49.96 50.07 50.26 50.36 50.96 50.49 49.29 49.10 49.67 49.12 49.83 50.13 49.55 49.78 51.04 52.18 52.11 53.11 53.13 52.65 52.82 53.83 53.17
43.28 38.37 38.86 38.91 43.68 42.94 40.77 42.47 42.63 42.95 42.13 40.34 40.98 41.60 46.89 49.46 49.63 47.82 48.75 48.92 47.44 46.78 47.40 48.90 50.07 49.93 50.28 50.14 49.82 49.98 51.47 50.42 50.14 49.75 49.86 52.31 52.38 53.11 53.11 52.68 52.20 51.52 51.70 52.24
43.03 41.68 38.00 33.93 42.06 41.52 38.64 41.50 42.56 43.55 44.35 43.19 39.97 43.66 46.93 46.09 45.65 45.58 46.39 47.01 46.39 46.47 47.06 47.06 48.44 49.16 49.75 50.51 51.33 50.48 50.89 51.79 50.16 49.92 50.75 51.51 52.53 52.88 53.04 52.36 52.36 51.18 50.74 51.44
44.11 42.11 39.53 36.68 36.83 29.97 41.37 47.71 47.11 44.10 43.22 43.83 43.87 44.88 44.31 45.53 45.93 44.89 45.46 45.99 45.86 45.76 46.61 46.42 47.35 48.16 49.07 50.14 50.91 52.24 53.28 52.56 50.95 50.54 50.70 51.33 51.98 52.63 53.03 52.59 51.76 50.78 50.84 50.74
46.47 42.74 39.14 35.52 33.46 40.91 43.53 45.56 45.18 43.20 39.45 44.48 44.05 44.12 42.88 43.08 40.36 39.66 44.48 46.80 46.98 46.55 46.92 46.81 47.60 48.22 48.66 48.71 50.07 50.73 51.27 52.56 52.15 51.66 51.09 51.97 52.19 52.08 52.21 51.83 51.69 52.35 51.65 50.58
46.94 45.39 41.56 36.77 33.67 32.82 41.10 46.17 48.61 47.39 36.54 42.75 43.30 41.96 42.10 39.94 33.10 36.34 42.70 46.35 46.27 46.74 46.93 47.40 47.47 47.83 47.51 48.68 50.26 50.83 50.41 51.46 51.89 52.89 52.45 52.11 52.24 52.47 52.84 51.62 51.12 52.86 52.33 51.06
40.48 40.19 37.62 36.39 35.62 39.94 44.58 46.67 46.24 34.47 33.62 42.17 42.84 42.65 40.94 37.72 39.22 41.91 44.60 44.65 45.40 45.58 46.63 47.38 46.80 46.14 46.89 47.98 49.07 48.92 49.82 50.07 52.49 53.43 53.23 52.80 52.49 53.05 53.14 52.18 51.84 51.12 52.21 53.25
38.54 36.64 35.85 36.48 34.53 34.72 44.56 43.10 36.74 39.66 40.89 42.00 41.59 42.17 42.42 42.44 42.91 43.38 43.56 43.78 44.67 44.62 45.56 46.62 45.86 45.91 46.89 47.83 48.42 48.05 47.82 50.79 51.66 53.32 53.30 53.25 52.80 53.20 53.56 53.58 52.64 52.12 51.27 51.38
37.57 39.69 38.11 37.22 36.15 41.90 43.16 41.86 43.21 43.13 40.41 40.84 40.52 41.93 42.73 42.94 42.69 42.70 42.95 43.95 44.39 44.69 45.09 45.78 45.32 45.56 46.74 47.44 48.38 47.43 48.94 50.49 51.05 51.37 52.78 53.13 53.02 53.14 52.69 52.46 52.19 50.24 51.41 50.27
43.43 42.91 38.56 38.67 40.91 43.16 42.59 43.14 43.44 43.12 41.79 42.71 42.61 42.98 42.69 41.61 42.85 42.86 42.93 43.35 43.67 44.29 44.77 45.79 45.44 45.61 45.49 47.35 48.31 48.70 49.07 50.38 50.21 49.10 50.23 51.06 51.56 51.28 51.96 51.81 51.75 52.19 52.01 50.51
43.37 43.48 40.55 39.23 41.82 43.90 43.40 43.85 43.91 43.84 43.53 43.63 44.88 45.08 44.64 43.85 43.57 43.39 43.10 43.78 44.07 44.43 45.22 45.76 45.55 45.62 46.25 47.39 47.82 48.40 48.36 49.03 49.25 48.94 48.76 48.90 50.79 50.95 50.93 51.45 51.30 51.05 52.05 50.93
43.16 41.64 38.89 37.63 42.74 41.81 42.22 44.43 46.02 43.88 44.22 44.67 44.43 44.45 44.73 43.94 42.99 43.95 42.95 43.43 44.30 44.14 44.78 45.98 45.59 45.66 45.56 45.27 45.27 45.41 46.77 47.47 48.27 47.88 47.66 47.50 48.73 50.31 51.05 50.54 50.60 47.61 45.51 45.02
MSLP
1011.39 1012.39 1013.19 1013.27 1013.82 1014.71 1015.84 1017.35 1018.82 1019.92 1020.57 1021.03 1021.68 1022.08 1022.31 1022.33 1022.61 1023.18 1023.22 1023.26 1023.09 1023.20 1023.47 1023.59 1023.94 1024.11 1024.52 1024.55 1024.81 1025.07 1025.07 1024.92 1024.74 1024.85 1024.84 1024.78 1024.66 1024.22 1023.94 1023.73 1023.49 1023.17 1022.93 1022.70
1011.79 1012.24 1012.13 1012.44 1013.13 1014.13 1015.54 1017.33 1019.27 1020.21 1020.57 1021.20 1022.13 1022.63 1022.92 1023.04 1023.14 1023.14 1023.51 1023.65 1023.82 1023.85 1023.88 1024.11 1024.31 1024.71 1024.76 1024.83 1024.71 1025.02 1024.88 1024.92 1024.76 1025.02 1025.11 1024.93 1024.67 1024.38 1024.14 1023.70 1023.25 1022.98 1022.80 1022.60
1011.53 1011.62 1011.71 1012.20 1013.06 1013.91 1015.54 1016.77 1018.75 1019.76 1021.04 1021.61 1022.37 1023.14 1023.29 1023.31 1023.36 1023.35 1023.75 1023.88 1023.94 1023.87 1023.96 1024.00 1024.17 1024.15 1024.10 1024.32 1024.54 1024.92 1024.85 1024.71 1024.78 1024.87 1024.79 1024.58 1024.41 1024.38 1024.19 1023.74 1023.39 1023.04 1022.81 1022.51
1011.62 1011.74 1012.02 1012.71 1013.32 1014.04 1015.32 1015.92 1017.81 1019.55 1020.71 1022.36 1022.80 1023.62 1023.56 1023.21 1023.25 1023.21 1023.43 1023.67 1023.91 1023.93 1023.79 1023.83 1023.91 1023.99 1024.00 1023.81 1024.13 1024.38 1024.49 1024.61 1024.49 1024.45 1024.69 1024.89 1024.94 1024.79 1024.28 1023.93 1023.53 1023.07 1022.71 1022.44
1012.16 1012.16 1012.61 1013.09 1013.63 1014.25 1015.66 1016.67 1018.16 1019.85 1021.10 1022.41 1023.12 1023.40 1023.31 1023.19 1023.01 1022.91 1023.18 1023.47 1023.65 1023.61 1023.77 1023.82 1023.56 1023.42 1023.16 1023.16 1023.74 1024.13 1024.25 1024.34 1024.33 1024.39 1024.69 1024.75 1024.64 1024.48 1024.10 1023.82 1023.50 1023.10 1022.66 1022.28
1012.38 1012.45 1013.21 1013.49 1014.04 1014.83 1016.21 1017.53 1019.14 1020.67 1021.97 1023.25 1023.51 1023.61 1023.68 1023.35 1023.13 1022.92 1022.80 1022.91 1023.01 1023.14 1023.12 1023.08 1023.07 1022.99 1022.79 1023.09 1023.65 1023.75 1024.09 1024.22 1024.24 1024.28 1024.37 1024.40 1024.37 1024.14 1023.98 1023.71 1023.52 1023.09 1022.62 1022.13
1013.23 1013.79 1013.81 1013.97 1014.73 1015.77 1016.63 1018.16 1020.24 1021.85 1022.84 1023.79 1023.64 1023.65 1023.40 1022.93 1022.75 1022.85 1022.79 1022.67 1022.70 1022.75 1022.93 1022.88 1022.76 1022.56 1022.85 1022.88 1023.05 1023.50 1023.90 1024.05 1024.10 1024.10 1024.07 1023.99 1023.84 1023.85 1023.75 1023.57 1023.38 1023.07 1022.61 1022.26
1014.56 1014.95 1014.93 1015.07 1015.67 1016.31 1017.00 1018.32 1019.96 1021.82 1023.53 1024.04 1023.76 1023.75 1023.20 1022.63 1022.48 1022.52 1022.54 1022.46 1022.45 1022.67 1022.67 1022.61 1022.73 1022.79 1022.71 1023.20 1023.36 1023.51 1023.70 1023.97 1024.01 1023.99 1023.88 1023.68 1023.59 1023.55 1023.36 1023.25 1023.03 1022.74 1022.54 1022.18
1015.15 1015.91 1015.83 1015.85 1016.11 1016.65 1017.33 1018.69 1020.14 1022.04 1023.93 1024.44 1024.55 1023.98 1023.02 1022.79 1022.62 1022.68 1022.75 1022.66 1022.65 1022.67 1022.69 1022.71 1022.27 1022.49 1022.89 1022.68 1022.75 1023.19 1023.56 1023.70 1023.79 1023.79 1023.72 1023.44 1023.39 1023.23 1023.12 1022.87 1022.63 1022.47 1022.19 1021.88
1015.59 1016.70 1017.03 1016.76 1016.65 1017.14 1017.79 1019.38 1020.75 1022.32 1024.30 1025.08 1025.09 1024.67 1024.24 1023.71 1023.45 1023.15 1023.06 1022.97 1022.77 1022.70 1022.63 1022.87 1023.07 1022.88 1022.82 1022.20 1022.64 1022.89 1023.20 1023.35 1023.44 1023.43 1023.44 1023.30 1023.14 1022.95 1022.88 1022.69 1022.41 1022.20 1022.08 1021.71
1016.17 1017.31 1018.45 1017.97 1018.49 1018.75 1018.98 1020.09 1021.72 1023.08 1024.60 1025.24 1025.60 1025.47 1025.10 1024.71 1024.40 1024.35 1023.93 1023.71 1023.55 1023.22 1023.25 1022.93 1022.56 1022.42 1022.20 1022.60 1022.62 1022.77 1022.98 1023.24 1023.24 1023.12 1023.09 1022.99 1022.80 1022.62 1022.62 1022.38 1022.08 1021.81 1021.61 1021.55
1017.08 1018.59 1019.54 1019.57 1019.21 1019.20 1019.77 1020.88 1021.87 1023.36 1025.19 1025.64 1025.84 1026.26 1025.91 1025.36 1025.16 1025.07 1025.07 1024.58 1023.80 1023.77 1023.48 1023.08 1022.91 1022.76 1022.42 1022.30 1022.37 1022.64 1022.73 1022.73 1022.62 1022.73 1022.79 1022.60 1022.41 1022.18 1022.23 1021.99 1021.60 1021.23 1021.20 1021.14
1017.25 1019.43 1020.54 1020.66 1020.43 1020.01 1020.98 1021.70 1022.42 1023.46 1024.58 1025.90 1026.36 1026.60 1026.11 1025.93 1025.84 1026.06 1025.65 1025.05 1024.57 1024.23 1024.34 1023.49 1023.27 1023.09 1022.93 1023.00 1022.93 1022.68 1022.46 1022.12 1022.14 1022.31 1022.40 1022.23 1021.98 1021.77 1021.70 1021.50 1021.19 1020.96 1020.87 1020.82
1017.42 1019.82 1020.54 1021.07 1021.04 1021.46 1022.11 1022.59 1022.94 1023.60 1024.96 1025.98 1026.37 1026.50 1026.39 1026.21 1026.05 1025.82 1025.79 1025.23 1025.21 1025.14 1024.59 1024.22 1023.98 1023.40 1022.93 1022.25 1022.30 1022.37 1022.22 1021.97 1021.55 1021.73 1021.87 1021.75 1021.57 1021.22 1020.92 1020.86 1020.70 1020.62 1020.57 1020.61
1018.72 1020.98 1021.34 1021.94 1021.93 1022.23 1023.24 1023.72 1023.85 1024.39 1025.17 1025.74 1026.34 1026.52 1026.58 1026.40 1026.44 1026.19 1026.06 1025.82 1025.34 1025.11 1024.94 1024.74 1024.30 1023.80 1023.25 1022.70 1022.25 1021.87 1022.01 1021.67 1021.40 1021.34 1021.27 1021.12 1020.84 1020.65 1020.38 1020.31 1020.25 1020.31 1020.28 1020.32
1019.98 1021.68 1022.35 1023.30 1023.21 1022.91 1023.67 1024.15 1024.44 1025.02 1025.45 1025.88 1026.18 1026.34 1026.36 1025.99 1026.31 1026.28 1026.22 1026.06 1025.86 1025.55 1025.21 1024.83 1024.49 1024.00 1023.43 1022.85 1022.27 1022.01 1021.39 1021.14 1021.13 1021.08 1020.84 1020.55 1020.32 1020.15 1019.96 1019.78 1019.89 1019.93 1019.98 1020.03
1020.86 1022.12 1023.13 1023.99 1023.83 1023.68 1024.14 1024.55 1024.74 1025.33 1025.76 1025.95 1026.22 1026.58 1026.21 1026.11 1026.34 1026.48 1026.38 1026.23 1026.03 1025.72 1025.38 1025.04 1024.63 1024.15 1023.52 1022.88 1022.31 1021.79 1021.24 1020.90 1020.85 1020.44 1020.25 1020.17 1019.90 1019.77 1019.50 1019.43 1019.57 1019.57 1019.71 1019.79
1021.01 1022.27 1023.40 1024.26 1024.26 1024.45 1024.68 1024.32 1024.54 1025.17 1025.88 1026.10 1026.37 1026.30 1026.57 1026.53 1026.43 1026.37 1026.23 1026.22 1026.10 1025.84 1025.48 1025.10 1024.63 1024.17 1023.56 1022.95 1022.29 1021.61 1021.01 1020.55 1020.17 1019.90 1019.80 1019.63 1019.43 1019.32 1019.08 1019.10 1019.14 1019.14 1019.34 1019.51
1020.61 1022.11 1023.76 1024.42 1024.98 1025.18 1024.82 1024.61 1024.61 1024.94 1025.98 1026.15 1026.34 1026.62 1026.76 1026.77 1026.73 1026.46 1026.08 1026.01 1025.99 1025.73 1025.31 1024.98 1024.56 1024.10 1023.52 1022.99 1022.37 1021.58 1020.67 1020.11 1019.69 1019.49 1019.45 1018.94 1019.02 1018.89 1018.80 1018.78 1018.69 1018.79 1019.03 1019.20
1021.44 1022.21 1023.39 1024.68 1025.05 1025.12 1024.57 1024.19 1024.10 1024.80 1025.88 1026.17 1026.52 1026.81 1026.96 1027.19 1027.48 1027.01 1026.15 1026.03 1025.75 1025.40 1025.11 1024.82 1024.37 1023.94 1023.42 1022.80 1022.28 1021.58 1020.86 1020.09 1019.43 1019.14 1018.90 1018.81 1018.61 1018.47 1018.33 1018.41 1018.47 1018.30 1018.48 1018.73
1022.75 1023.65 1024.68 1025.08 1025.15 1025.09 1024.52 1024.39 1024.37 1025.43 1026.50 1026.22 1026.56 1026.78 1027.02 1027.40 1027.03 1026.38 1026.11 1025.83 1025.53 1025.24 1024.92 1024.51 1024.15 1023.79 1023.22 1022.70 1022.24 1021.69 1020.97 1020.24 1019.59 1018.95 1018.65 1018.39 1018.24 1018.02 1017.96 1018.02 1018.10 1018.10 1018.10 1018.34
1023.85 1024.57 1025.31 1025.68 1025.53 1025.30 1024.52 1024.65 1025.12 1025.93 1025.99 1026.13 1026.38 1026.54 1026.79 1026.69 1026.35 1026.16 1025.83 1025.50 1025.26 1025.01 1024.67 1024.35 1024.19 1023.77 1023.09 1022.62 1022.24 1021.66 1021.10 1020.47 1019.68 1018.82 1018.45 1018.22 1017.96 1017.78 1017.65 1017.68 1017.46 1017.66 1017.80 1018.06
1024.45 1024.74 1025.21 1025.92 1025.56 1025.06 1024.77 1024.73 1024.98 1025.40 1025.79 1025.89 1026.07 1025.89 1026.02 1026.15 1025.96 1025.79 1025.54 1025.24 1025.03 1024.85 1024.59 1024.19 1024.01 1023.54 1022.92 1022.56 1022.13 1021.66 1020.95 1020.42 1019.85 1019.17 1018.59 1018.35 1018.22 1017.85 1017.66 1017.52 1017.32 1017.30 1017.48 1017.68
1024.57 1024.74 1025.31 1025.77 1025.60 1025.17 1024.95 1024.92 1025.11 1025.35 1025.44 1025.37 1025.52 1025.65 1025.82 1026.02 1025.86 1025.73 1025.50 1025.35 1025.14 1024.77 1024.42 1023.94 1023.69 1023.40 1023.03 1022.52 1022.04 1021.57 1021.00 1020.44 1019.96 1019.47 1019.01 1018.64 1018.29 1017.68 1017.04 1017.28 1017.16 1016.89 1016.91 1017.15
1024.62 1024.85 1025.41 1025.74 1025.39 1025.21 1025.08 1024.89 1024.87 1025.04 1025.23 1025.44 1025.41 1025.60 1025.75 1025.85 1025.80 1025.71 1025.64 1025.43 1025.22 1024.94 1024.43 1024.06 1023.83 1023.57 1023.21 1022.69 1022.11 1021.61 1021.18 1020.67 1020.11 1019.63 1019.16 1018.70 1018.32 1017.89 1017.35 1017.16 1017.06 1016.74 1016.38 1016.17
1024.43 1024.82 1024.99 1024.83 1024.69 1024.83 1024.77 1024.49 1024.66 1024.96 1025.18 1025.28 1025.45 1025.58 1025.79 1025.89 1025.91 1025.77 1025.71 1025.54 1025.35 1025.02 1024.67 1024.30 1024.00 1023.68 1023.31 1022.87 1022.39 1021.88 1021.38 1020.91 1020.36 1019.82 1019.30 1018.95 1018.51 1018.04 1017.65 1017.18 1016.48 1016.46 1016.20 1016.04
Wind_Speed
4 6 3 5 7 5 6 7 7 2 4 7 9 9 8 1 7 11 8 7 10 8 6 3 2 2 1 4 4 4 2 3 4 3 3 3 3 3 2 3 4 5 4 4
6 1 4 1 4 4 7 9 4 3 5 7 9 8 7 6 6 3 11 9 6 6 4 3 5 5 6 4 5 6 1 2 3 1 1 2 2 3 3 3 5 4 5 5
5 4 2 4 2 3 3 6 6 7 7 6 6 3 2 2 2 1 2 1 3 5 5 5 6 10 11 8 6 4 2 2 1 1 2 2 1 2 3 3 3 3 5 5
2 2 2 2 2 4 2 1 13 16 5 4 0 2 2 1 2 3 4 6 6 6 4 4 8 9 7 8 5 3 4 3 2 3 2 1 2 2 2 3 3 5 5 5
1 2 0 2 2 4 3 6 11 5 6 5 7 5 4 1 5 4 5 8 8 7 6 7 8 7 9 6 5 5 4 3 3 3 3 3 4 3 3 3 5 5 5 5
3 3 4 2 6 9 12 13 9 6 3 4 3 3 5 3 3 5 4 6 8 7 7 8 7 8 7 3 4 5 4 3 4 4 4 5 6 6 4 4 4 4 3 4
5 5 2 5 6 3 7 5 4 3 4 3 3 3 6 4 4 4 8 8 7 7 6 7 8 7 3 6 6 3 3 5 4 5 6 6 6 6 6 5 3 5 3 3
2 4 7 9 3 1 2 6 5 4 3 2 4 1 4 5 2 4 5 5 3 6 7 7 6 6 5 1 6 4 4 6 5 5 7 5 5 3 3 4 3 3 3 4
4 2 3 6 3 2 1 5 3 8 3 3 2 3 6 6 4 3 6 5 6 7 6 7 8 4 4 7 6 6 5 5 5 6 6 5 5 5 4 5 4 3 4 3
2 4 4 5 6 5 7 4 1 4 4 2 3 3 3 7 7 6 6 7 8 7 7 6 5 5 5 9 5 5 6 6 6 6 5 5 5 4 4 4 5 5 5 3
3 5 6 4 5 3 6 4 6 6 3 5 3 3 4 7 7 9 11 11 10 9 7 6 8 6 5 2 4 6 5 6 6 5 5 6 6 4 4 5 5 4 4 4
1 6 3 2 3 4 2 2 4 5 2 2 4 2 8 7 9 11 13 14 16 8 8 7 7 7 6 6 6 6 5 6 5 6 6 6 6 5 5 6 5 5 5 4
5 2 4 6 7 5 6 4 4 5 4 1 4 4 7 9 12 10 10 13 15 18 17 13 9 7 5 6 6 6 7 7 5 5 6 6 7 5 6 7 6 6 4 4
9 4 5 6 5 3 4 6 3 5 4 3 1 1 8 7 9 10 11 13 9 8 11 12 13 12 8 5 5 6 8 7 6 4 5 6 7 7 7 6 5 6 3 4
6 4 4 7 8 9 6 7 10 7 2 3 1 3 3 3 6 5 4 6 7 9 10 10 11 11 10 10 7 4 9 8 6 6 5 7 8 6 6 6 5 4 4 3
5 4 5 7 6 9 8 5 7 7 5 5 3 2 4 4 2 3 5 7 7 8 9 10 10 12 12 11 8 5 4 12 5 7 8 6 6 6 6 5 5 4 4 3
4 5 4 3 6 4 5 1 5 5 4 1 3 3 5 4 4 4 6 6 6 7 8 9 9 9 9 10 8 10 9 8 6 6 7 7 8 6 5 5 5 5 5 3
6 5 3 4 1 3 3 4 7 9 6 6 2 4 4 3 2 2 4 4 7 7 7 8 8 9 10 10 10 10 9 8 5 9 8 7 8 7 5 5 5 3 3 4
5 5 4 4 3 3 4 5 4 2 3 1 3 1 3 5 3 6 5 3 6 7 7 6 6 6 7 9 12 14 12 9 8 8 8 9 6 8 5 6 5 4 3 3
7 7 5 2 4 6 1 3 5 4 3 3 2 4 5 2 4 6 5 5 8 8 6 7 8 7 6 9 9 11 11 10 8 8 9 7 7 8 6 6 6 4 4 4
4 4 3 2 2 1 1 4 2 3 5 3 4 6 4 4 7 6 7 7 5 6 7 7 7 6 7 7 7 9 10 12 12 8 7 7 6 7 5 4 3 4 4 4
3 3 1 2 1 5 2 1 5 6 2 3 4 6 6 8 9 7 9 8 7 8 8 7 6 8 9 7 5 8 8 11 12 10 8 5 4 6 4 6 6 5 3 4
1 4 5 5 5 4 3 7 4 6 4 4 4 7 8 8 7 8 8 7 7 8 7 7 6 7 8 7 5 7 9 8 9 10 8 6 6 3 4 5 5 3 4 5
2 3 4 3 3 4 4 2 3 6 6 5 6 6 4 6 8 8 7 6 6 7 8 6 7 7 8 8 8 6 9 8 7 7 7 6 6 6 5 6 5 4 4 4
4 4 5 1 1 3 3 5 5 8 4 6 5 3 5 5 7 4 5 6 6 6 6 6 5 6 8 8 8 8 9 10 8 6 6 6 5 5 5 4 5 5 6 5
4 6 5 6 7 5 5 4 2 3 3 4 3 2 4 3 5 4 5 5 4 6 6 7 7 6 8 8 9 10 10 10 9 8 5 5 6 6 5 5 7 7 8 10
Wind_Direction
1 67 263 247 209 61 106 82 99 79 126 83 85 69 36 253 221 167 209 203 222 221 259 204 107 194 125 197 195 239 278 3 38 15 359 343 328 323 302 298 312 321 324 324
28 179 232 35 106 115 101 113 92 68 66 89 99 74 58 47 14 134 199 230 253 259 247 152 162 10 287 250 225 238 253 316 41 32 268 238 280 290 281 299 318 341 339 322
149 236 98 33 1 41 130 141 184 149 104 40 109 105 134 188 119 47 280 278 243 265 231 174 166 212 229 232 225 228 233 322 305 312 323 331 324 304 313 321 314 330 323 321
106 19 93 17 303 109 305 177 138 139 121 152 202 176 202 226 280 220 209 246 234 254 243 199 215 252 241 240 208 178 221 256 311 358 336 284 245 274 264 280 289 309 315 309
316 50 12 231 65 163 199 103 129 100 82 107 359 78 264 327 320 321 223 219 225 230 233 230 229 245 244 224 188 194 214 263 299 313 275 277 280 250 283 302 311 307 305 309
52 54 72 300 24 94 107 87 56 59 91 51 295 115 303 294 288 310 301 245 223 229 248 229 238 250 256 145 136 178 218 272 291 290 298 283 279 286 295 301 305 305 297 321
19 9 360 41 93 43 86 62 32 346 12 224 281 75 231 266 243 239 278 278 245 229 228 234 241 242 201 210 195 178 205 271 294 302 299 285 273 274 267 275 282 307 323 311
155 319 6 334 35 158 220 145 156 248 190 237 341 25 270 251 255 267 281 291 286 229 232 233 254 244 245 195 239 212 225 261 297 297 289 294 299 275 276 270 278 281 282 287
128 74 311 45 342 16 337 52 158 106 30 79 279 279 341 2 343 326 341 339 302 276 272 260 238 271 166 246 200 211 227 253 274 273 286 297 293 304 299 298 282 288 284 282
124 97 13 345 20 17 92 145 67 24 130 135 328 327 259 339 327 323 299 297 299 290 276 298 334 266 226 220 206 210 225 241 262 275 283 279 280 289 287 292 288 305 303 288
96 95 313 40 15 285 348 29 58 108 100 143 157 273 327 296 331 342 341 336 320 308 318 286 269 242 249 293 223 227 232 244 265 273 275 276 267 273 275 274 275 277 283 291
97 116 91 153 287 313 66 95 106 113 193 77 122 248 342 347 31 26 12 7 6 342 321 303 308 301 270 247 233 236 244 241 245 262 273 265 262 248 262 273 270 261 268 286
171 33 85 339 348 2 43 2 90 95 87 100 136 251 11 37 39 17 15 13 15 13 348 354 345 315 315 297 292 274 258 241 245 240 264 263 261 254 256 262 268 271 255 269
84 82 154 182 183 149 44 9 34 102 90 160 195 323 356 28 40 26 2 11 1 327 348 349 333 337 317 295 277 275 272 262 256 237 257 260 263 258 248 254 264 268 268 276
86 79 68 48 82 83 80 52 47 65 154 98 90 84 345 10 10 13 345 312 336 359 349 333 333 333 325 312 287 311 289 277 274 254 246 255 256 258 259 248 261 272 260 260
18 104 54 55 54 92 85 52 62 49 43 86 94 87 280 260 178 347 343 347 351 342 333 332 328 332 331 323 313 295 304 290 262 264 267 263 265 255 261 246 272 243 268 267
80 128 96 173 175 142 55 7 100 99 36 6 46 353 323 1 65 354 325 324 317 318 320 324 318 313 311 311 295 284 275 266 280 265 269 267 272 254 261 249 258 239 238 236
122 101 105 145 167 252 311 132 102 100 84 80 71 268 358 348 206 254 278 281 301 301 301 310 314 320 319 319 314 300 280 267 268 283 282 263 269 263 256 245 237 228 224 227
78 117 91 121 83 104 162 192 182 244 169 265 268 355 322 310 1 307 275 270 276 282 287 284 289 292 307 319 331 332 325 294 273 266 269 270 264 261 251 250 223 225 218 224
59 65 106 109 141 209 49 329 319 144 209 248 199 231 253 36 357 267 292 303 299 302 293 294 308 303 314 322 324 335 346 327 297 271 260 269 265 260 246 229 241 219 193 222
11 11 93 90 120 193 288 317 41 116 238 213 196 237 246 221 210 251 294 290 265 271 288 301 311 301 287 303 326 333 333 345 339 311 283 276 273 268 261 244 218 244 218 218
138 118 115 85 140 248 37 34 119 213 227 215 228 245 248 247 274 276 278 267 287 297 302 309 309 311 313 317 328 326 331 339 338 331 300 276 290 317 289 243 229 229 210 227
53 173 171 164 210 231 296 142 169 165 188 226 219 247 233 256 262 278 271 287 294 295 293 293 288 302 311 318 320 315 315 322 332 339 360 352 326 282 331 300 257 229 213 212
77 146 102 93 248 195 191 136 169 195 224 252 250 271 288 272 293 286 297 306 304 308 313 301 309 316 315 326 320 309 322 320 329 339 341 328 321 325 21 344 293 246 214 198
192 124 135 302 269 109 254 227 224 244 254 291 312 298 309 312 311 302 323 331 328 320 324 331 333 334 331 331 334 338 336 334 327 325 329 330 324 325 342 309 284 281 249 195
183 165 153 211 197 158 213 226 248 248 281 311 269 12 15 29 352 336 335 331 330 331 333 348 353 348 338 337 338 339 339 340 330 323 329 330 323 325 318 314 323 290 266 247